Pasco, WA

6:26 AM PDT on October 01, 2016 (GMT -0700)
Tri-Cities

Weather History for KPSC - December, 2014

Change the Weather History Date:

Tuesday, December 23, 2014

  Actual Average Record
Temperature  
Mean Temperature 44 °F 32 °F  
Max Temperature 53 °F 39 °F 59 °F (2013)
Min Temperature 34 °F 25 °F 0 °F (1990)
Degree Days  
Heating Degree Days 21 33  
Month to date heating degree days 618 726  
Since 1 July heating degree days 1683 1955  
Cooling Degree Days 0 0  
Month to date cooling degree days 0 0  
Year to date cooling degree days 991 710  
Moisture  
Dew Point 38 °F    
Average Humidity 77    
Maximum Humidity 100    
Minimum Humidity 54    
Precipitation  
Precipitation 0.00 in 0.05 in 0.32 in (2012)
Month to date precipitation 0.69 0.83  
Year to date precipitation 5.02 8.45  
Snow  
Snow 0.00 in - - ()
Snow Depth 0.00 in    
Sea Level Pressure  
Sea Level Pressure 30.21 in    
Wind  
Wind Speed 5 mph (South)    
Max Wind Speed 20 mph    
Max Gust Speed 25 mph    
Visibility 10 miles    
Events      
T = Trace of Precipitation, MM = Missing Value Source: NWS Daily Summary

Daily Weather History Graph

Daily Weather History Graph

Search for Another Location

Airport or City:

Trip Planner

Search our weather history database for the weather conditions in past years. The results will help you decide how hot, cold, wet, or windy it might be!

Date:

Astronomy

Dec. 23, 2014 Rise Set
Actual Time 7:37 AM PST 4:13 PM PST
Civil Twilight 7:02 AM PST 4:48 PM PST
Nautical Twilight 6:24 AM PST 5:27 PM PST
Astronomical Twilight 5:47 AM PST 6:03 PM PST
Moon 8:39 AM PST (12/23) 6:42 PM PST (12/23)
Length of Visible Light 9h 46m
Length of Day
8h 36m
Waxing Crescent, 4% of the Moon is Illuminated
Dec 23
Waxing Crescent
Dec 28
First Quarter
Jan 4
Full
Jan 13
Last Quarter
Jan 20
New

Hourly Weather History & Observations

Time (PST) Temp. Windchill Dew Point Humidity Pressure Visibility Wind Dir Wind Speed Gust Speed Precip Events Conditions
12:53 AM 39.0 °F 35.7 °F 37.9 °F 96% 30.38 in 10.0 mi North 4.6 mph - N/A   Mostly Cloudy
1:53 AM 34.0 °F 29.8 °F 33.1 °F 96% 30.38 in 10.0 mi North 4.6 mph - N/A   Mostly Cloudy
2:53 AM 36.0 °F 33.3 °F 35.1 °F 97% 30.38 in 10.0 mi North 3.5 mph - N/A   Overcast
3:53 AM 36.0 °F - 36.0 °F 100% 30.37 in 10.0 mi Calm Calm - N/A   Overcast
4:53 AM 36.0 °F 33.3 °F 35.1 °F 97% 30.37 in 10.0 mi WNW 3.5 mph - N/A   Overcast
5:53 AM 36.0 °F 33.3 °F 35.1 °F 97% 30.35 in 10.0 mi NNE 3.5 mph - N/A   Overcast
6:53 AM 35.1 °F 32.2 °F 35.1 °F 100% 30.33 in 10.0 mi North 3.5 mph - N/A   Overcast
7:53 AM 35.1 °F - 35.1 °F 100% 30.34 in 10.0 mi Calm Calm - N/A   Overcast
8:53 AM 37.9 °F 35.5 °F 37.0 °F 97% 30.34 in 10.0 mi East 3.5 mph - N/A   Overcast
9:53 AM 41.0 °F 39.0 °F 37.9 °F 89% 30.34 in 10.0 mi SE 3.5 mph - N/A   Overcast
10:53 AM 45.0 °F 41.2 °F 37.9 °F 76% 30.32 in 10.0 mi SE 6.9 mph - N/A   Mostly Cloudy
11:53 AM 48.9 °F - 39.0 °F 69% 30.27 in 10.0 mi SE 8.1 mph - N/A   Overcast
12:53 PM 50.0 °F - 39.0 °F 66% 30.23 in 10.0 mi SSE 8.1 mph - N/A   Overcast
1:53 PM 53.1 °F - 37.9 °F 57% 30.19 in 10.0 mi South 12.7 mph - N/A   Mostly Cloudy
2:53 PM 52.0 °F - 39.0 °F 61% 30.17 in 10.0 mi SSW 12.7 mph - N/A   Mostly Cloudy
3:53 PM 50.0 °F - 37.9 °F 63% 30.15 in 10.0 mi SSW 10.4 mph - N/A   Mostly Cloudy
4:53 PM 48.9 °F - 39.0 °F 69% 30.13 in 10.0 mi South 9.2 mph - N/A   Mostly Cloudy
5:53 PM 48.0 °F - 37.9 °F 68% 30.10 in 10.0 mi Variable 4.6 mph - N/A   Mostly Cloudy
6:53 PM 52.0 °F - 39.0 °F 61% 30.08 in 10.0 mi SSW 8.1 mph - N/A   Mostly Cloudy
7:53 PM 48.9 °F - 39.0 °F 69% 30.04 in 10.0 mi WSW 5.8 mph - N/A   Partly Cloudy
8:53 PM 48.9 °F - 39.9 °F 71% 30.01 in 10.0 mi ESE 4.6 mph - N/A   Mostly Cloudy
9:53 PM 46.9 °F - 41.0 °F 80% 29.97 in 10.0 mi SSE 10.4 mph - N/A   Clear
10:53 PM 52.0 °F - 43.0 °F 71% 29.94 in 10.0 mi SSW 12.7 mph - N/A   Scattered Clouds
11:53 PM 53.1 °F - 43.0 °F 69% 29.91 in 10.0 mi SSW 11.5 mph - N/A   Scattered Clouds